Ekofisk Plat, Norway

10:21 AM CET on February 22, 2017 (GMT +0100)
Ekofisk

Weather History for ENEK - March, 2013

Change the Weather History Date:

Sunday, March 10, 2013

  Actual Average Record
Temperature  
Mean Temperature 30 °F -  
Max Temperature 36 °F 43 °F 48 °F (2003)
Min Temperature 24 °F 39 °F 24 °F (2013)
Degree Days  
Heating Degree Days 35    
Moisture  
Dew Point 21 °F    
Average Humidity 69    
Maximum Humidity 100    
Minimum Humidity 43    
Precipitation  
Precipitation 0.00 in - - ()
Sea Level Pressure  
Sea Level Pressure 29.98 in    
Wind  
Wind Speed 23 mph ()    
Max Wind Speed 45 mph    
Max Gust Speed 51 mph    
Visibility 5.3 miles    
Events Snow , Hail    
Averages and records for this station are not official NWS values.
T = Trace of Precipitation, MM = Missing Value Source: Averaged Metar Reports

Daily Weather History Graph

Daily Weather History Graph

Search for Another Location

Airport or City:

Trip Planner

Search our weather history database for the weather conditions in past years. The results will help you decide how hot, cold, wet, or windy it might be!

Date:

Astronomy

Mar. 10, 2013 Rise Set
Actual Time 7:15 AM CET 6:40 PM CET
Civil Twilight 6:38 AM CET 7:17 PM CET
Nautical Twilight 5:54 AM CET 8:01 PM CET
Astronomical Twilight 5:09 AM CET 8:47 PM CET
Moon 6:17 AM CET (3/10) 5:25 PM CET (3/10)
Length of Visible Light 12h 39m
Length of Day
11h 24m
Waning Crescent, 2% of the Moon is Illuminated
Mar 10
Waning Crescent
Mar 11
New
Mar 19
First Quarter
Mar 27
Full
Apr 3
Last Quarter

Hourly Weather History & Observations

Time (CET) Temp. Windchill Dew Point Humidity Pressure Visibility Wind Dir Wind Speed Gust Speed Precip Events Conditions
12:20 AM 35.6 °F 24.0 °F 21.2 °F 56% 29.89 in 6.2 mi East 23.0 mph 34.5 mph N/A   Scattered Clouds
12:50 AM 33.8 °F 21.9 °F 23.0 °F 65% 29.89 in 6.2 mi East 21.9 mph 34.5 mph N/A   Scattered Clouds
1:00 AM 36 °F - 22 °F 43% 29.92 in 31 mi East 15.7 mph - -   Partly Cloudy
1:50 AM 35.6 °F 24.2 °F 19.4 °F 52% 29.89 in 6.2 mi East 21.9 mph - N/A   Mostly Cloudy
2:20 AM 35.6 °F 24.0 °F 23.0 °F 60% 29.89 in 6.2 mi East 23.0 mph - N/A   Mostly Cloudy
2:50 AM 35.6 °F 23.4 °F 23.0 °F 60% 29.89 in 6.2 mi ENE 25.3 mph - N/A   Mostly Cloudy
3:20 AM 33.8 °F 23.2 °F 24.8 °F 70% 29.89 in 6.2 mi East 17.3 mph 28.8 mph N/A   Mostly Cloudy
3:50 AM 33.8 °F 20.8 °F 28.4 °F 81% 29.89 in 1.9 mi NE 26.5 mph - N/A Snow , Hail Light Snow Showers
4:20 AM 30.2 °F 16.8 °F 28.4 °F 93% 29.92 in 0.6 mi ENE 23.0 mph - N/A Snow Snow Showers
4:50 AM 30.2 °F 17.8 °F 30.2 °F 100% 29.92 in 1.9 mi East 19.6 mph - N/A Snow Light Snow Showers
5:20 AM 30.2 °F 20.2 °F 30.2 °F 100% 29.92 in 2.5 mi ENE 12.7 mph - N/A Snow Light Snow Showers
5:50 AM 30.2 °F 19.8 °F 28.4 °F 93% 29.92 in 6.2 mi ENE 13.8 mph - N/A Snow Light Snow Showers
6:20 AM 30.2 °F 15.2 °F 28.4 °F 93% 29.92 in 6.2 mi ENE 29.9 mph - N/A   Mostly Cloudy
6:50 AM 30.2 °F 15.2 °F 28.4 °F 93% 29.92 in 6.2 mi East 29.9 mph - N/A Snow Light Snow Showers
7:00 AM 31 °F - 26 °F 72% 29.95 in 1 mi East 22.4 mph - - Snow Light Snow Showers
7:20 AM 30.2 °F 16.8 °F 28.4 °F 93% 29.95 in 6.2 mi East 23.0 mph 38.0 mph N/A   Mostly Cloudy
7:50 AM 30.2 °F 16.5 °F 21.2 °F 69% 29.95 in 6.2 mi East 24.2 mph - N/A   Mostly Cloudy
8:20 AM 30.2 °F 16.5 °F 23.0 °F 75% 29.95 in 6.2 mi East 24.2 mph 36.8 mph N/A   Scattered Clouds
8:50 AM 30.2 °F 15.7 °F 19.4 °F 64% 29.95 in 6.2 mi East 27.6 mph 41.4 mph N/A   Scattered Clouds
9:20 AM 30.2 °F 15.4 °F 15.8 °F 55% 29.95 in 6.2 mi East 28.8 mph 42.6 mph N/A   Scattered Clouds
9:50 AM 30.2 °F 15.2 °F 19.4 °F 64% 29.95 in 6.2 mi East 29.9 mph 41.4 mph N/A   Scattered Clouds
10:20 AM 30.2 °F 15.4 °F 15.8 °F 55% 29.98 in 6.2 mi East 28.8 mph 41.4 mph N/A   Scattered Clouds
10:50 AM 30.2 °F 15.7 °F 15.8 °F 55% 29.98 in 6.2 mi East 27.6 mph 44.9 mph N/A   Scattered Clouds
11:20 AM 30.2 °F 14.3 °F 14.0 °F 51% 29.98 in 6.2 mi ENE 34.5 mph 46.0 mph N/A   Scattered Clouds
11:50 AM 30.2 °F 13.5 °F 19.4 °F 64% 29.98 in 6.2 mi ENE 39.1 mph 50.6 mph N/A   Scattered Clouds
12:20 PM 28.4 °F 12.3 °F 21.2 °F 74% 30.01 in 6.2 mi ENE 32.2 mph - N/A   Scattered Clouds
12:50 PM 28.4 °F 12.3 °F 21.2 °F 74% 30.01 in 6.2 mi ENE 32.2 mph - N/A   Scattered Clouds
1:00 PM 30 °F - 20 °F 54% 30.02 in 2 mi East 20.1 mph - - Snow Light Snow Showers
1:20 PM 30.2 °F 16.8 °F 15.8 °F 55% 30.01 in 6.2 mi East 23.0 mph 35.7 mph N/A   Scattered Clouds
1:50 PM 30.2 °F 16.5 °F 12.2 °F 47% 30.01 in 6.2 mi East 24.2 mph - N/A   Scattered Clouds
2:20 PM 30.2 °F 14.9 °F 12.2 °F 47% 30.01 in 6.2 mi East 31.1 mph 42.6 mph N/A   Scattered Clouds
2:50 PM 30.2 °F 15.7 °F 15.8 °F 55% 30.01 in 6.2 mi ENE 27.6 mph 41.4 mph N/A   Scattered Clouds
3:20 PM 30.2 °F 15.9 °F 15.8 °F 55% 30.01 in 6.2 mi East 26.5 mph 39.1 mph N/A   Scattered Clouds
3:50 PM 28.4 °F 13.5 °F 19.4 °F 69% 30.01 in 6.2 mi East 26.5 mph - N/A Snow Light Snow Showers
4:50 PM 26.6 °F 9.8 °F 23.0 °F 86% 30.04 in 0.6 mi East 32.2 mph - N/A Snow Snow Showers
5:20 PM 28.4 °F 12.5 °F 21.2 °F 74% 30.04 in 6.2 mi ENE 31.1 mph - N/A Snow Light Snow Showers
5:50 PM 28.4 °F 13.3 °F 19.4 °F 69% 30.04 in 0.6 mi ENE 27.6 mph - N/A   Small Hail
6:20 PM 26.6 °F 9.1 °F 23.0 °F 86% 30.04 in 0.6 mi ENE 35.7 mph - N/A Snow Snow Showers
6:50 PM 24.8 °F 8.7 °F 23.0 °F 93% 30.04 in 6.2 mi ENE 26.5 mph - N/A   Scattered Clouds
7:00 PM 28 °F - 23 °F 75% 30.06 in 6 mi ENE 26.8 mph - - Hail Light Hail Showers
7:20 PM 26.6 °F 8.9 °F 23.0 °F 86% 30.04 in 6.2 mi ENE 36.8 mph - N/A   Scattered Clouds
7:50 PM 26.6 °F 7.5 °F 23.0 °F 86% 30.04 in 6.2 mi ENE 44.9 mph - N/A Snow Snow Showers
8:20 PM 28.4 °F 11.0 °F 23.0 °F 80% 30.04 in 6.2 mi ENE 39.1 mph - N/A   Scattered Clouds
8:50 PM 28.4 °F 11.0 °F 23.0 °F 80% 30.04 in 6.2 mi ENE 39.1 mph - N/A   Scattered Clouds
9:20 PM 28.4 °F 12.5 °F 15.8 °F 59% 30.06 in 6.2 mi ENE 31.1 mph - N/A   Scattered Clouds
9:50 PM 28.4 °F 13.0 °F 14.0 °F 55% 30.06 in 6.2 mi ENE 28.8 mph - N/A   Scattered Clouds
10:20 PM 28.4 °F 12.5 °F 10.4 °F 47% 30.06 in 6.2 mi ENE 31.1 mph - N/A   Scattered Clouds
10:50 PM 28.4 °F 12.5 °F 8.6 °F 43% 30.06 in 6.2 mi NE 31.1 mph - N/A   Partly Cloudy
11:50 PM 28.4 °F 13.5 °F 12.2 °F 51% 30.06 in 6.2 mi ENE 26.5 mph - N/A   Partly Cloudy